Location: Tauranga
(37.6860°S, 176.1670°E)
Time: 17:03:37
(UTC+12:00)

Cosmos 2263 Rocket - Pass Details

Date: 24 January 2019
Orbit: 825 x 847 km, 71.0° (Epoch: 17 April)

Event Time Altitude Azimuth Distance (km) Brightness Sun altitude
Rises 21:38:34 0° 198° (SSW) 3,415 6.3 -11.7°
Reaches altitude 10° 21:41:06 10° 192° (SSW) 2,477 5.4 -12.1°
Maximum altitude 21:46:38 50° 116° (ESE) 1,065 2.6 -13.0°
Enters shadow 21:50:30 19° 47° (NE) 1,895 3.4 -13.6°
